Location: Beetenbrück
(52.8113°N, 9.5946°E)
Time: 21:11:19
(UTC+00:00)

Cosmos 2292 Rocket - Pass Details

Date: 14 April 2026
Orbit: 367 x 1221 km, 83.0° (Epoch: 12 May)

Event Time Altitude Azimuth Distance (km) Brightness Sun altitude
Rises 21:01:26 0° 347° (NNW) 3,573 8.6 -20.7°
Reaches altitude 10° 21:04:14 10° 343° (NNW) 2,483 7.7 -21.0°
Maximum altitude 21:09:35 52° 269° (W) 878 4.4 -21.5°
Enters shadow 21:11:26 32° 210° (SSW) 1,134 4.6 -21.6°
